DW7322 Weather Reports


time (UTC)temp
C
wind
direction
speed
KPH
gust
KPH
rain 1hr
cm
rain 24hr
cm
rain mn
cm
humidity
%
barometer
mb
20260504100117 7 219 0.0 3.2 0.00 0.25 0.00 86 1004.8
20260504090113 7 226 0.0 0.0 0.00 0.25 0.00 84 1004.8
20260504081544 8 227 0.0 0.0 0.00 0.25 0.00 85 1004.8
20260504080106 8 227 0.0 0.0 0.00 0.25 0.00 84 1004.6
20260504050014 10 227 0.0 0.0 0.00 0.25 0.25 83 1006.7
20260504044540 10 227 0.0 0.0 0.00 0.25 0.25 81 1006.7
20260504043055 11 226 0.0 0.0 0.00 0.25 0.25 80 1006.7
20260504041519 11 227 0.0 0.0 0.00 0.25 0.25 78 1006.6
20260504040100 11 227 0.0 0.0 0.00 0.25 0.25 77 1006.6
20260504034551 12 226 0.0 0.0 0.00 0.25 0.25 77 1006.5
20260504033128 12 227 0.0 0.0 0.00 0.25 0.25 77 1006.7
20260504031520 12 227 0.0 1.6 0.00 0.25 0.25 75 1006.7
20260504030050 12 227 0.0 0.0 0.00 0.25 0.25 75 1006.8
20260504024544 13 227 0.0 0.0 0.00 0.25 0.25 73 1006.7
20260504023008 13 227 0.0 1.6 0.00 0.25 0.25 72 1006.7
20260504021528 13 227 0.0 1.6 0.00 0.25 0.25 70 1006.6
20260504020100 14 227 0.0 1.6 0.00 0.25 0.25 69 1006.6
20260504014548 15 227 0.0 1.6 0.00 0.25 0.25 67 1006.4
20260504013002 15 227 0.0 1.6 0.00 0.25 0.25 66 1006.3
20260504011526 15 224 0.0 1.6 0.00 0.25 0.25 65 1006.2
20260504010021 15 264 0.0 1.6 0.00 0.25 0.25 65 1006.2
20260504004556 16 264 0.0 0.0 0.00 0.25 0.25 63 1006.2
20260504003056 17 264 0.0 1.6 0.00 0.25 0.25 59 1006.1
20260504001524 17 264 0.0 1.6 0.00 0.25 0.25 57 1006.1
20260504000014 18 265 0.0 0.0 0.00 0.25 0.25 57 1006.3
20260503234543 18 264 0.0 1.6 0.00 0.25 0.25 54 1006.1
20260503233059 19 252 0.0 1.6 0.00 0.25 0.25 53 1006.3
20260503233004 19 252 0.0 1.6 0.00 0.25 0.25 52 1006.3
20260503231523 20 252 0.0 4.8 0.00 0.25 0.25 51 1006.3
20260503230057 20 278 0.0 6.4 0.00 0.25 0.25 50 1006.4
20260503224540 21 249 0.0 3.2 0.00 0.25 0.25 48 1006.5
20260503223059 21 248 1.6 6.4 0.00 0.25 0.25 48 1006.6
20260503223006 21 216 1.6 6.4 0.00 0.25 0.25 47 1006.6
20260503221521 21 315 0.0 8.0 0.00 0.25 0.25 48 1006.7
20260503220041 21 273 1.6 8.0 0.00 0.25 0.25 48 1006.8
20260503214528 20 234 1.6 8.0 0.00 0.25 0.25 51 1006.9
20260503213058 20 245 4.8 14.5 0.00 0.25 0.25 47 1006.9
20260503211507 20 229 8.0 24.1 0.00 0.25 0.25 45 1007.2
20260503210002 20 234 3.2 11.3 0.00 0.25 0.25 49 1007.5
20260503204523 19 218 6.4 12.9 0.00 0.25 0.25 50 1007.9
20260503203040 18 257 6.4 12.9 0.00 0.25 0.25 47 1008.2
20260503201506 18 216 4.8 9.7 0.00 0.25 0.25 50 1008.6
20260503200002 18 212 4.8 12.9 0.00 0.25 0.25 49 1008.9
20260503194525 19 246 6.4 12.9 0.00 0.25 0.25 49 1009.0
20260503193045 18 213 6.4 22.5 0.00 0.25 0.25 49 1009.2
20260503191603 18 222 4.8 16.1 0.00 0.25 0.25 58 1009.4
20260503190111 17 191 4.8 19.3 0.00 0.25 0.25 60 1009.6
20260503184559 16 192 3.2 16.1 0.00 0.25 0.25 64 1009.7
20260503183016 15 125 6.4 20.9 0.00 0.25 0.25 67 1010.0
20260503181528 14 216 6.4 19.3 0.00 0.25 0.25 69 1010.3
20260503180049 13 202 6.4 16.1 0.00 0.25 0.25 71 1010.7
20260503174541 12 188 4.8 14.5 0.00 0.25 0.25 73 1011.2
20260503173117 11 354 6.4 12.9 0.03 0.25 0.25 79 1011.3
20260503171518 10 222 3.2 14.5 0.05 0.25 0.25 86 1011.9
20260503160118 8 204 0.0 16.1 0.08 0.15 0.18 87 1014.2
20260503150120 9 241 0.0 4.8 0.08 0.08 0.08 83 1014.9
20260503140109 10 224 0.0 3.2 0.00 0.00 0.00 74 1014.5